Time,TemperatureF,DewpointF,PressureIn,WindDirection,WindDirectionDegrees,WindSpeedMPH,WindSpeedGustMPH,Humidity,HourlyPrecipIn,Conditions,Clouds,dailyrainin,SoftwareType,DateUTC
2013-04-26 00:02:00,65.0,-99.9,30.19,WNW,295,3.0,5.0,-999,-99.99,,,-99.99,,2013-04-26 07:02:00,
2013-04-26 00:12:00,65.0,-99.9,30.19,WNW,295,3.0,5.0,-999,-99.99,,,-99.99,,2013-04-26 07:12:00,
2013-04-26 00:22:00,65.0,-99.9,30.19,West,260,1.0,2.0,-999,-99.99,,,-99.99,,2013-04-26 07:22:00,
2013-04-26 00:32:00,65.0,-99.9,30.21,SW,229,1.0,2.0,-999,-99.99,,,-99.99,,2013-04-26 07:32:00,
2013-04-26 00:42:00,65.0,-99.9,30.21,SW,229,1.0,2.0,-999,-99.99,,,-99.99,,2013-04-26 07:42:00,
2013-04-26 00:52:00,65.0,-99.9,30.21,SW,229,1.0,2.0,-999,-99.99,,,-99.99,,2013-04-26 07:52:00,
2013-04-26 01:03:00,64.0,-99.9,30.19,WSW,251,2.0,5.0,-999,-99.99,,,-99.99,,2013-04-26 08:03:00,
2013-04-26 01:11:00,64.0,-99.9,30.19,WSW,251,2.0,5.0,-999,-99.99,,,-99.99,,2013-04-26 08:11:00,
2013-04-26 01:22:00,64.0,-99.9,30.19,WSW,251,2.0,5.0,-999,-99.99,,,-99.99,,2013-04-26 08:22:00,
2013-04-26 01:32:00,64.0,-99.9,30.21,West,274,1.0,3.0,-999,-99.99,,,-99.99,,2013-04-26 08:32:00,
2013-04-26 01:42:00,64.0,-99.9,30.21,West,274,1.0,3.0,-999,-99.99,,,-99.99,,2013-04-26 08:42:00,
2013-04-26 01:52:00,64.0,-99.9,30.20,SW,215,1.0,2.0,-999,-99.99,,,-99.99,,2013-04-26 08:52:00,
2013-04-26 02:00:00,64.0,-99.9,30.21,South,180,1.0,1.0,-999,-99.99,,,-99.99,,2013-04-26 09:00:00,
2013-04-26 02:02:00,64.0,-99.9,30.20,SW,215,1.0,2.0,-999,-99.99,,,-99.99,,2013-04-26 09:02:00,
2013-04-26 02:12:00,64.0,-99.9,30.20,SW,215,1.0,2.0,-999,-99.99,,,-99.99,,2013-04-26 09:12:00,
2013-04-26 02:22:00,64.0,-99.9,30.21,South,180,1.0,1.0,-999,-99.99,,,-99.99,,2013-04-26 09:22:00,
2013-04-26 02:33:00,64.0,-99.9,30.21,South,180,1.0,1.0,-999,-99.99,,,-99.99,,2013-04-26 09:33:00,
2013-04-26 02:43:00,64.0,-99.9,30.21,South,180,1.0,1.0,-999,-99.99,,,-99.99,,2013-04-26 09:43:00,
2013-04-26 02:53:00,64.0,-99.9,30.21,South,180,1.0,1.0,-999,-99.99,,,-99.99,,2013-04-26 09:53:00,
2013-04-26 03:33:00,62.0,-99.9,30.18,WNW,293,0.0,1.0,-999,-99.99,,,-99.99,,2013-04-26 10:33:00,
2013-04-26 03:42:00,62.0,-99.9,30.18,WNW,293,0.0,1.0,-999,-99.99,,,-99.99,,2013-04-26 10:42:00,
2013-04-26 03:52:00,62.0,-99.9,30.18,WNW,293,0.0,0.0,-999,-99.99,,,-99.99,,2013-04-26 10:52:00,
2013-04-26 04:02:00,61.0,-99.9,30.17,ENE,68,0.0,0.0,-999,-99.99,,,-99.99,,2013-04-26 11:02:00,
2013-04-26 04:12:00,61.0,-99.9,30.17,ENE,68,0.0,0.0,-999,-99.99,,,-99.99,,2013-04-26 11:12:00,
2013-04-26 04:22:00,61.0,-99.9,30.17,ENE,68,0.0,0.0,-999,-99.99,,,-99.99,,2013-04-26 11:22:00,
2013-04-26 04:32:00,61.0,-99.9,30.18,North,360,0.0,0.0,-999,-99.99,,,-99.99,,2013-04-26 11:32:00,
2013-04-26 04:42:00,61.0,-99.9,30.18,North,360,0.0,0.0,-999,-99.99,,,-99.99,,2013-04-26 11:42:00,
2013-04-26 04:52:00,61.0,-99.9,30.18,WNW,293,0.0,0.0,-999,-99.99,,,-99.99,,2013-04-26 11:52:00,
2013-04-26 05:02:00,61.0,-99.9,30.18,WNW,293,0.0,0.0,-999,-99.99,,,-99.99,,2013-04-26 12:02:00,
2013-04-26 05:12:00,61.0,-99.9,30.18,WNW,293,0.0,0.0,-999,-99.99,,,-99.99,,2013-04-26 12:12:00,
2013-04-26 05:22:00,61.0,-99.9,30.18,WNW,293,0.0,0.0,-999,-99.99,,,-99.99,,2013-04-26 12:22:00,
2013-04-26 05:32:00,60.0,-99.9,30.18,NE,48,1.0,3.0,-999,-99.99,,,-99.99,,2013-04-26 12:32:00,
2013-04-26 05:42:00,60.0,-99.9,30.18,NE,48,1.0,3.0,-999,-99.99,,,-99.99,,2013-04-26 12:42:00,
2013-04-26 05:52:00,60.0,-99.9,30.17,ENE,68,0.0,2.0,-999,-99.99,,,-99.99,,2013-04-26 12:52:00,
2013-04-26 06:01:00,60.0,-99.9,30.17,ENE,68,0.0,2.0,-999,-99.99,,,-99.99,,2013-04-26 13:01:00,
2013-04-26 06:10:00,59.0,-99.9,30.17,North,360,0.0,0.0,-999,-99.99,,,-99.99,,2013-04-26 13:10:00,
2013-04-26 06:12:00,60.0,-99.9,30.17,ENE,68,0.0,2.0,-999,-99.99,,,-99.99,,2013-04-26 13:12:00,
2013-04-26 06:22:00,59.0,-99.9,30.15,ESE,113,0.0,0.0,-999,-99.99,,,-99.99,,2013-04-26 13:22:00,
2013-04-26 06:32:00,59.0,-99.9,30.17,North,360,0.0,0.0,-999,-99.99,,,-99.99,,2013-04-26 13:32:00,
2013-04-26 06:42:00,59.0,-99.9,30.17,North,360,0.0,0.0,-999,-99.99,,,-99.99,,2013-04-26 13:42:00,
2013-04-26 06:52:00,59.0,-99.9,30.17,North,360,0.0,0.0,-999,-99.99,,,-99.99,,2013-04-26 13:52:00,
2013-04-26 07:02:00,59.0,-99.9,30.17,North,360,0.0,0.0,-999,-99.99,,,-99.99,,2013-04-26 14:02:00,
2013-04-26 07:22:00,59.0,-99.9,30.18,NNE,18,1.0,3.0,-999,-99.99,,,-99.99,,2013-04-26 14:22:00,
2013-04-26 07:32:00,59.0,-99.9,30.19,East,86,2.0,2.0,-999,-99.99,,,-99.99,,2013-04-26 14:32:00,
2013-04-26 07:42:00,59.0,-99.9,30.19,East,86,2.0,2.0,-999,-99.99,,,-99.99,,2013-04-26 14:42:00,
2013-04-26 07:52:00,60.0,-99.9,30.20,North,351,0.0,2.0,-999,-99.99,,,-99.99,,2013-04-26 14:52:00,
2013-04-26 08:02:00,60.0,-99.9,30.20,North,351,0.0,2.0,-999,-99.99,,,-99.99,,2013-04-26 15:02:00,
2013-04-26 08:12:00,60.0,-99.9,30.20,North,351,0.0,2.0,-999,-99.99,,,-99.99,,2013-04-26 15:12:00,
2013-04-26 08:22:00,61.0,-99.9,30.19,ENE,61,1.0,2.0,-999,-99.99,,,-99.99,,2013-04-26 15:22:00,
2013-04-26 08:33:00,61.0,-99.9,30.19,ENE,61,1.0,2.0,-999,-99.99,,,-99.99,,2013-04-26 15:33:00,
2013-04-26 08:43:00,61.0,-99.9,30.19,ENE,61,1.0,2.0,-999,-99.99,,,-99.99,,2013-04-26 15:43:00,
2013-04-26 08:53:00,62.0,-99.9,30.18,WNW,302,1.0,3.0,-999,-99.99,,,-99.99,,2013-04-26 15:53:00,
2013-04-26 09:03:00,62.0,-99.9,30.19,NE,38,2.0,3.0,-999,-99.99,,,-99.99,,2013-04-26 16:03:00,
2013-04-26 09:13:00,62.0,-99.9,30.19,NE,38,2.0,3.0,-999,-99.99,,,-99.99,,2013-04-26 16:13:00,
2013-04-26 09:23:00,62.0,-99.9,30.19,NE,38,2.0,3.0,-999,-99.99,,,-99.99,,2013-04-26 16:23:00,
2013-04-26 09:33:00,64.0,-99.9,30.19,NNW,331,1.0,3.0,-999,-99.99,,,-99.99,,2013-04-26 16:33:00,
2013-04-26 09:42:00,64.0,-99.9,30.19,NNW,331,1.0,3.0,-999,-99.99,,,-99.99,,2013-04-26 16:42:00,
2013-04-26 09:53:00,65.0,-99.9,30.19,WNW,302,3.0,3.0,-999,-99.99,,,-99.99,,2013-04-26 16:53:00,
2013-04-26 10:02:00,67.0,-99.9,30.19,SW,224,2.0,4.0,-999,-99.99,,,-99.99,,2013-04-26 17:02:00,
2013-04-26 10:12:00,67.0,-99.9,30.19,SW,224,2.0,4.0,-999,-99.99,,,-99.99,,2013-04-26 17:12:00,
2013-04-26 10:22:00,67.0,-99.9,30.20,NNE,26,1.0,4.0,-999,-99.99,,,-99.99,,2013-04-26 17:22:00,
2013-04-26 10:32:00,67.0,-99.9,30.20,ESE,117,2.0,5.0,-999,-99.99,,,-99.99,,2013-04-26 17:32:00,
2013-04-26 10:42:00,67.0,-99.9,30.20,ESE,117,2.0,5.0,-999,-99.99,,,-99.99,,2013-04-26 17:42:00,
2013-04-26 10:52:00,67.0,-99.9,30.20,ESE,117,2.0,5.0,-999,-99.99,,,-99.99,,2013-04-26 17:52:00,
2013-04-26 11:02:00,70.0,-99.9,30.20,SSW,209,3.0,5.0,-999,-99.99,,,-99.99,,2013-04-26 18:02:00,
2013-04-26 11:12:00,71.0,-99.9,30.19,WSW,246,5.0,10.0,-999,-99.99,,,-99.99,,2013-04-26 18:12:00,
2013-04-26 11:22:00,71.0,-99.9,30.19,WSW,246,5.0,10.0,-999,-99.99,,,-99.99,,2013-04-26 18:22:00,
2013-04-26 11:33:00,72.0,-99.9,30.21,SW,219,5.0,7.0,-999,-99.99,,,-99.99,,2013-04-26 18:33:00,
2013-04-26 11:42:00,72.0,-99.9,30.21,SW,219,5.0,7.0,-999,-99.99,,,-99.99,,2013-04-26 18:42:00,
2013-04-26 11:52:00,73.0,-99.9,30.19,SSW,202,3.0,8.0,-999,-99.99,,,-99.99,,2013-04-26 18:52:00,
2013-04-26 12:02:00,74.0,-99.9,30.20,WSW,255,2.0,10.0,-999,-99.99,,,-99.99,,2013-04-26 19:02:00,
2013-04-26 12:12:00,74.0,-99.9,30.20,WSW,255,2.0,10.0,-999,-99.99,,,-99.99,,2013-04-26 19:12:00,
2013-04-26 12:22:00,74.0,-99.9,30.20,WSW,255,2.0,10.0,-999,-99.99,,,-99.99,,2013-04-26 19:22:00,
2013-04-26 12:32:00,74.0,-99.9,30.20,WSW,255,2.0,10.0,-999,-99.99,,,-99.99,,2013-04-26 19:32:00,
2013-04-26 12:42:00,74.0,-99.9,30.20,WSW,255,2.0,10.0,-999,-99.99,,,-99.99,,2013-04-26 19:42:00,
2013-04-26 12:52:00,75.0,-99.9,30.20,SW,234,8.0,14.0,-999,-99.99,,,-99.99,,2013-04-26 19:52:00,
2013-04-26 13:02:00,76.0,-99.9,30.21,SW,221,5.0,10.0,-999,-99.99,,,-99.99,,2013-04-26 20:02:00,
2013-04-26 13:11:00,76.0,-99.9,30.21,SW,221,5.0,10.0,-999,-99.99,,,-99.99,,2013-04-26 20:11:00,
2013-04-26 13:22:00,76.0,-99.9,30.21,SW,221,5.0,10.0,-999,-99.99,,,-99.99,,2013-04-26 20:22:00,
2013-04-26 13:32:00,77.0,-99.9,30.21,SSW,210,5.0,12.0,-999,-99.99,,,-99.99,,2013-04-26 20:32:00,
2013-04-26 13:42:00,77.0,-99.9,30.21,SSW,210,5.0,12.0,-999,-99.99,,,-99.99,,2013-04-26 20:42:00,
2013-04-26 13:52:00,77.0,-99.9,30.21,SSW,210,5.0,12.0,-999,-99.99,,,-99.99,,2013-04-26 20:52:00,
2013-04-26 14:02:00,78.0,-99.9,30.21,SW,220,5.0,11.0,-999,-99.99,,,-99.99,,2013-04-26 21:02:00,
2013-04-26 14:11:00,78.0,-99.9,30.21,SW,220,5.0,11.0,-999,-99.99,,,-99.99,,2013-04-26 21:11:00,
2013-04-26 14:22:00,78.0,-99.9,30.18,SSW,193,5.0,12.0,-999,-99.99,,,-99.99,,2013-04-26 21:22:00,
2013-04-26 14:33:00,78.0,-99.9,30.18,SSW,193,5.0,12.0,-999,-99.99,,,-99.99,,2013-04-26 21:33:00,
2013-04-26 14:42:00,78.0,-99.9,30.18,SSW,193,5.0,12.0,-999,-99.99,,,-99.99,,2013-04-26 21:42:00,
2013-04-26 14:53:00,78.0,-99.9,30.18,SSW,193,5.0,12.0,-999,-99.99,,,-99.99,,2013-04-26 21:53:00,
2013-04-26 15:03:00,79.0,-99.9,30.18,South,190,6.0,12.0,-999,-99.99,,,-99.99,,2013-04-26 22:03:00,
2013-04-26 15:13:00,79.0,-99.9,30.18,South,190,6.0,12.0,-999,-99.99,,,-99.99,,2013-04-26 22:13:00,
2013-04-26 15:23:00,78.0,-99.9,30.18,South,187,7.0,13.0,-999,-99.99,,,-99.99,,2013-04-26 22:23:00,
2013-04-26 15:33:00,79.0,-99.9,30.17,South,190,6.0,13.0,-999,-99.99,,,-99.99,,2013-04-26 22:33:00,
2013-04-26 15:42:00,79.0,-99.9,30.17,South,190,6.0,13.0,-999,-99.99,,,-99.99,,2013-04-26 22:42:00,
2013-04-26 15:52:00,79.0,-99.9,30.17,SSW,204,6.0,12.0,-999,-99.99,,,-99.99,,2013-04-26 22:52:00,
2013-04-26 16:02:00,79.0,-99.9,30.16,WSW,237,7.0,14.0,-999,-99.99,,,-99.99,,2013-04-26 23:02:00,
2013-04-26 16:12:00,79.0,-99.9,30.16,WSW,237,7.0,14.0,-999,-99.99,,,-99.99,,2013-04-26 23:12:00,
2013-04-26 16:22:00,79.0,-99.9,30.17,West,265,7.0,12.0,-999,-99.99,,,-99.99,,2013-04-26 23:22:00,
2013-04-26 16:32:00,80.0,-99.9,30.17,West,273,7.0,14.0,-999,-99.99,,,-99.99,,2013-04-26 23:32:00,
2013-04-26 16:42:00,80.0,-99.9,30.17,West,273,7.0,14.0,-999,-99.99,,,-99.99,,2013-04-26 23:42:00,
2013-04-26 16:52:00,80.0,-99.9,30.17,WSW,247,9.0,13.0,-999,-99.99,,,-99.99,,2013-04-26 23:52:00,
2013-04-26 17:01:00,80.0,-99.9,30.17,West,276,8.0,14.0,-999,-99.99,,,-99.99,,2013-04-27 00:01:00,
2013-04-26 17:12:00,80.0,-99.9,30.17,West,276,8.0,14.0,-999,-99.99,,,-99.99,,2013-04-27 00:12:00,
2013-04-26 17:22:00,79.0,-99.9,30.17,West,267,5.0,10.0,-999,-99.99,,,-99.99,,2013-04-27 00:22:00,
2013-04-26 17:32:00,79.0,-99.9,30.17,West,279,6.0,12.0,-999,-99.99,,,-99.99,,2013-04-27 00:32:00,
2013-04-26 17:42:00,79.0,-99.9,30.17,West,279,6.0,12.0,-999,-99.99,,,-99.99,,2013-04-27 00:42:00,
2013-04-26 17:52:00,79.0,-99.9,30.17,West,279,6.0,12.0,-999,-99.99,,,-99.99,,2013-04-27 00:52:00,
2013-04-26 18:01:00,77.0,-99.9,30.18,West,281,6.0,11.0,-999,-99.99,,,-99.99,,2013-04-27 01:01:00,
2013-04-26 18:12:00,77.0,-99.9,30.18,West,281,6.0,11.0,-999,-99.99,,,-99.99,,2013-04-27 01:12:00,
2013-04-26 18:21:00,77.0,-99.9,30.18,West,281,6.0,11.0,-999,-99.99,,,-99.99,,2013-04-27 01:21:00,
2013-04-26 18:32:00,77.0,-99.9,30.18,West,281,6.0,11.0,-999,-99.99,,,-99.99,,2013-04-27 01:32:00,
2013-04-26 18:42:00,77.0,-99.9,30.18,West,281,6.0,11.0,-999,-99.99,,,-99.99,,2013-04-27 01:42:00,
2013-04-26 18:52:00,76.0,-99.9,30.19,West,275,5.0,11.0,-999,-99.99,,,-99.99,,2013-04-27 01:52:00,
2013-04-26 19:02:00,76.0,-99.9,30.19,West,275,5.0,11.0,-999,-99.99,,,-99.99,,2013-04-27 02:02:00,
2013-04-26 19:11:00,76.0,-99.9,30.19,West,275,5.0,11.0,-999,-99.99,,,-99.99,,2013-04-27 02:11:00,
2013-04-26 19:22:00,75.0,-99.9,30.20,West,268,5.0,9.0,-999,-99.99,,,-99.99,,2013-04-27 02:22:00,
2013-04-26 19:32:00,75.0,-99.9,30.20,West,268,5.0,9.0,-999,-99.99,,,-99.99,,2013-04-27 02:32:00,
2013-04-26 19:52:00,72.0,-99.9,30.20,WNW,297,6.0,10.0,-999,-99.99,,,-99.99,,2013-04-27 02:52:00,
2013-04-26 20:02:00,72.0,-99.9,30.20,WNW,297,6.0,10.0,-999,-99.99,,,-99.99,,2013-04-27 03:02:00,
2013-04-26 20:11:00,72.0,-99.9,30.20,WNW,297,6.0,10.0,-999,-99.99,,,-99.99,,2013-04-27 03:11:00,
2013-04-26 20:22:00,72.0,-99.9,30.20,WNW,282,4.0,9.0,-999,-99.99,,,-99.99,,2013-04-27 03:22:00,
2013-04-26 20:53:00,71.0,-99.9,30.22,WNW,283,2.0,7.0,-999,-99.99,,,-99.99,,2013-04-27 03:53:00,
2013-04-26 21:03:00,70.0,-99.9,30.22,West,277,3.0,7.0,-999,-99.99,,,-99.99,,2013-04-27 04:03:00,
2013-04-26 21:13:00,70.0,-99.9,30.22,West,277,3.0,7.0,-999,-99.99,,,-99.99,,2013-04-27 04:13:00,
2013-04-26 21:23:00,70.0,-99.9,30.21,WNW,299,3.0,5.0,-999,-99.99,,,-99.99,,2013-04-27 04:23:00,
2013-04-26 21:33:00,70.0,-99.9,30.22,West,273,4.0,6.0,-999,-99.99,,,-99.99,,2013-04-27 04:33:00,
2013-04-26 21:53:00,70.0,-99.9,30.23,WNW,292,2.0,3.0,-999,-99.99,,,-99.99,,2013-04-27 04:53:00,
2013-04-26 22:02:00,70.0,-99.9,30.23,WSW,243,3.0,5.0,-999,-99.99,,,-99.99,,2013-04-27 05:02:00,
2013-04-26 22:22:00,69.0,-99.9,30.22,West,259,3.0,5.0,-999,-99.99,,,-99.99,,2013-04-27 05:22:00,